Location: Alderson
(50.2799°N, 111.3440°W)
Time: 01:55:41
(UTC+00:00)

Envisat - Visible Passes

Search period start: 09 December 2021 00:00
Search period end: 19 December 2021 00:00
Orbit: 764 x 766 km, 98.2° (Epoch: 08 December)

Date Brightness Start Highest point End Pass type
(mag) Time Alt. Az. Time Alt. Az. Time Alt. Az.
09 Dec 5.2 00:24:12 10° SSW 00:28:36 29° W 00:33:01 10° NNW visible
09 Dec 6.1 10:51:12 10° ENE 10:52:21 11° E 10:53:29 10° E visible
09 Dec 3.2 12:27:12 10° NNE 12:32:18 71° ESE 12:37:22 10° S visible
09 Dec 4.2 14:07:06 10° N 14:10:50 21° WNW 14:14:34 10° WSW visible
10 Dec 4.5 11:50:36 10° NNE 11:55:16 35° E 11:59:54 10° SSE visible
10 Dec 3.4 13:29:38 10° N 13:34:20 38° WNW 13:38:59 10° SW visible
11 Dec 5.8 00:50:44 10° SW 00:54:11 18° W 00:57:38 10° NW visible
11 Dec 5.5 11:14:36 10° NE 11:18:02 18° E 11:21:28 10° SE visible
11 Dec 2.8 12:52:31 10° N 12:57:37 73° WNW 13:02:40 10° SSW visible
11 Dec 4.6 14:33:13 10° NNW 14:35:48 14° NW 14:38:22 10° W visible
12 Dec 4.8 00:12:18 10° SSW 00:16:57 35° W 00:21:37 10° NNW visible
12 Dec 3.5 12:15:41 10° NNE 12:20:43 57° E 12:25:43 10° S visible
12 Dec 3.9 13:55:19 10° N 13:59:24 25° WNW 14:03:29 10° WSW visible
13 Dec 6.3 01:18:39 10° W 01:19:52 11° W 01:21:06 10° WNW visible
13 Dec 4.8 11:39:13 10° NNE 11:43:37 29° E 11:48:00 10° SSE visible
13 Dec 3.2 13:17:58 10° N 13:22:50 46° WNW 13:27:39 10° SW visible
14 Dec 5.6 00:38:34 10° SW 00:42:29 22° W 00:46:26 10° NW visible
14 Dec 5.8 11:03:33 10° NE 11:06:19 15° E 11:09:04 10° ESE visible
14 Dec 2.9 12:40:56 10° NNE 12:46:04 89° WNW 12:51:09 10° SSW visible
14 Dec 4.4 14:21:14 10° NNW 14:24:23 17° NW 14:27:34 10° W visible
15 Dec 4.4 00:00:29 10° S 00:05:19 43° W 00:10:11 10° NNW visible
15 Dec 3.9 12:04:12 10° NNE 12:09:07 46° E 12:13:59 10° S visible
15 Dec 3.7 13:43:34 10° N 13:47:57 30° WNW 13:52:19 10° WSW visible
16 Dec 6.0 01:05:36 10° WSW 01:08:08 14° W 01:10:40 10° NW visible
16 Dec 5.1 11:27:53 10° NE 11:31:57 23° E 11:35:59 10° SE visible
16 Dec 3.0 13:06:19 10° N 13:11:19 56° WNW 13:16:16 10° SSW visible
17 Dec 5.3 00:26:31 10° SSW 00:30:49 27° W 00:35:08 10° NW visible
17 Dec 6.0 10:52:53 10° ENE 10:54:35 11° E 10:56:16 10° ESE visible
17 Dec 3.1 12:29:23 10° NNE 12:34:29 75° ESE 12:39:34 10° S visible
17 Dec 4.2 14:09:21 10° NNW 14:12:59 20° WNW 14:16:36 10° WSW visible
18 Dec 4.3 11:52:44 10° NNE 11:57:28 37° E 12:02:10 10° SSE visible
18 Dec 3.5 13:31:51 10° N 13:36:29 36° WNW 13:41:04 10° SW visible
